EW6655 Weather Reports


Display with metric or nautical units.
time (UTC)temp
F
wind
direction
speed
MPH
gust
MPH
rain 1hr
in
rain 24hr
in
rain mn
in
humidity
%
barometer
mb
20260502181527 61 117 0.0 1.0 0.00 0.00 0.00 80 1014.1
20260502163036 66 98 4.0 9.0 0.00 0.00 0.00 70 1014.2
20260502161526 68 63 3.0 8.0 0.00 0.00 0.00 66 1014.3
20260502151510 72 214 3.0 11.0 0.00 0.00 0.00 50 1014.9
20260502123110 70 258 4.0 12.0 0.00 0.00 0.00 58 1016.8
20260502121550 69 295 6.0 14.0 0.00 0.00 0.00 58 1017.2
20260502114544 70 221 6.0 19.0 0.00 0.00 0.00 55 1017.5
20260502113049 69 197 6.0 16.0 0.00 0.00 0.00 55 1017.5
20260502111545 70 247 7.0 14.0 0.00 0.00 0.00 56 1017.7
20260502110042 70 271 4.0 14.0 0.00 0.00 0.00 55 1017.8
20260502104536 69 216 4.0 14.0 0.00 0.00 0.00 56 1018.0
20260502103034 68 281 4.0 12.0 0.00 0.00 0.00 55 1018.2
20260502101531 68 244 2.0 14.0 0.00 0.00 0.00 55 1018.3
20260502091525 66 225 3.0 10.0 0.00 0.00 0.00 54 1018.8
20260502071504 59 263 1.0 6.0 0.00 0.00 0.00 61 1018.9
20260502070003 58 238 1.0 5.0 0.00 0.00 0.00 61 1019.0
20260502064501 58 259 2.0 7.0 0.00 0.00 0.00 59 1019.4
20260502063100 58 254 2.0 7.0 0.00 0.00 0.00 58 1019.3
20260502061558 58 251 3.0 7.0 0.00 0.00 0.00 56 1019.3
20260502060055 57 245 3.0 8.0 0.00 0.00 0.00 56 1019.5
20260502054553 56 253 3.0 12.0 0.00 0.00 0.00 54 1019.4
20260502053055 55 244 1.0 7.0 0.00 0.00 0.00 54 1019.3
20260502051559 53 199 0.0 3.0 0.00 0.00 0.00 53 1019.3
20260502050049 53 240 1.0 3.0 0.00 0.00 0.00 53 1019.2
20260502044548 53 242 0.0 2.0 0.00 0.00 0.00 51 1019.2
20260502043047 53 242 1.0 3.0 0.00 0.00 0.00 50 1019.3
20260502041545 53 205 0.0 3.0 0.00 0.00 0.00 50 1019.4
20260502040044 53 251 2.0 5.0 0.00 0.00 0.00 50 1019.6
20260502034543 52 241 0.0 1.0 0.00 0.00 0.00 51 1019.6
20260502033042 52 241 0.0 2.0 0.00 0.00 0.00 51 1019.7
20260502031541 52 241 1.0 2.0 0.00 0.00 0.00 51 1019.7
20260502030045 51 241 0.0 2.0 0.00 0.00 0.00 51 1019.8
20260502024537 52 241 0.0 2.0 0.00 0.00 0.00 51 1019.9
20260502023037 52 241 0.0 4.0 0.00 0.00 0.00 50 1020.0
20260502021536 53 280 0.0 3.0 0.00 0.00 0.00 49 1020.1
20260502020035 53 236 2.0 4.0 0.00 0.00 0.00 48 1020.1
20260502014536 53 245 1.0 4.0 0.00 0.00 0.00 48 1020.3
20260502013033 53 248 2.0 7.0 0.00 0.00 0.00 48 1020.3
20260502011532 53 265 1.0 4.0 0.00 0.00 0.00 48 1020.3
20260502010031 52 238 0.0 2.0 0.00 0.00 0.00 49 1020.5
20260502004529 52 238 1.0 3.0 0.00 0.00 0.00 50 1020.5
20260502003026 52 238 0.0 0.0 0.00 0.00 0.00 50 1020.6
20260502001524 53 238 0.0 2.0 0.00 0.00 0.00 49 1020.8
20260502000020 54 238 0.0 2.0 0.00 0.00 0.00 47 1021.0
20260501234516 54 189 1.0 3.0 0.00 0.00 0.00 46 1021.2
20260501233015 55 173 0.0 2.0 0.00 0.00 0.00 45 1021.3
20260501231515 55 173 0.0 2.0 0.00 0.00 0.00 45 1021.4
20260501230016 55 173 0.0 3.0 0.00 0.00 0.00 45 1021.5
20260501224511 55 182 0.0 3.0 0.00 0.00 0.00 46 1021.6
20260501223011 55 169 0.0 5.0 0.00 0.00 0.00 46 1021.6
20260501221512 55 209 0.0 1.0 0.00 0.00 0.00 46 1021.5
20260501220012 55 209 0.0 1.0 0.00 0.00 0.00 45 1021.6
20260501214506 56 209 0.0 2.0 0.00 0.00 0.00 44 1021.6
20260501213008 56 209 0.0 2.0 0.00 0.00 0.00 44 1021.7
20260501211507 56 209 0.0 3.0 0.00 0.00 0.00 44 1021.8
20260501210006 56 196 0.0 1.0 0.00 0.00 0.00 45 1021.9
20260501204508 56 182 0.0 2.0 0.00 0.00 0.00 44 1021.9
20260501203004 56 182 0.0 2.0 0.00 0.00 0.00 43 1021.9
20260501201504 57 134 0.0 2.0 0.00 0.00 0.00 43 1021.9
20260501200003 57 134 0.0 1.0 0.00 0.00 0.00 42 1021.9
20260501194508 58 134 0.0 3.0 0.00 0.00 0.00 40 1021.9
20260501193002 59 131 0.0 1.0 0.00 0.00 0.00 39 1021.8
20260501191502 61 130 0.0 0.0 0.00 0.00 0.00 37 1021.8
20260501190003 62 130 0.0 2.0 0.00 0.00 0.00 35 1021.8
20260501184501 63 176 0.0 3.0 0.00 0.00 0.00 34 1021.7
20260501183003 65 159 2.0 7.0 0.00 0.00 0.00 32 1021.7
20260501181628 66 181 2.0 5.0 0.00 0.00 0.00 31 1021.7